Theta_e
288 288 288 288 288 288 288 288 288 288 288 288 289 289 289 289 289 289 289 290 290 290 290 290 291 291 291 292 292 292 292 292 293 293 294 294 295 295 296 296 296 296 296 297 297 297 297 297 298 298 298 298 298 298 298 298 298 299 299 299 299 299 299 299 299 300 300 300 300 301 301 301 301 301 301 301 301 301 301 301 301 301 301 301 300 301
288 288 288 288 288 288 288 288 288 288 288 289 289 289 289 289 289 289 289 290 290 290 290 290 291 291 291 291 292 292 292 292 293 293 294 294 295 295 296 296 296 296 296 297 297 297 297 297 297 298 298 298 298 298 298 298 298 298 299 299 299 299 299 299 299 299 299 299 300 300 300 301 301 301 300 300 300 300 300 300 300 300 300 300 300 300
288 288 288 288 288 288 288 288 288 289 289 289 289 289 289 289 289 289 289 290 290 290 290 290 291 291 291 291 292 292 292 292 293 293 294 294 295 295 296 296 296 296 297 297 297 297 297 297 297 297 298 298 298 298 298 298 298 298 298 299 299 299 299 299 299 299 299 299 300 300 300 300 300 300 300 300 300 300 300 300 300 300 300 300 300 300
288 288 288 288 289 289 289 289 289 289 289 289 289 289 289 289 289 289 290 290 290 290 291 291 291 291 291 291 292 292 292 292 293 293 294 294 295 295 296 296 296 296 296 297 297 297 297 297 297 297 297 298 298 298 298 298 298 298 298 298 298 299 299 299 299 299 299 299 299 300 299 300 300 300 300 300 300 300 300 300 300 300 300 300 300 300
289 289 289 289 289 289 289 289 289 289 289 289 289 289 289 290 290 290 290 290 291 291 291 291 291 291 291 291 292 292 292 292 293 293 294 295 295 295 296 296 296 296 296 296 296 296 297 297 297 297 297 297 297 297 297 297 298 298 298 298 298 298 298 298 299 299 299 299 299 299 299 299 299 300 300 300 300 300 300 300 300 300 300 300 300 300
289 289 289 289 289 289 289 289 289 289 289 289 290 290 290 290 290 290 290 291 291 291 291 291 291 291 292 292 292 292 292 293 293 294 294 294 295 295 295 295 296 296 296 296 296 296 296 296 296 296 296 297 297 297 297 297 297 297 297 297 297 297 297 298 298 298 298 298 299 298 298 299 299 299 299 299 299 299 299 299 299 299 299 299 299 299
289 289 290 290 290 290 290 290 290 290 290 290 290 290 290 290 290 291 291 291 291 291 291 291 292 292 292 292 292 292 292 293 293 293 293 294 294 294 294 295 295 295 295 295 295 295 296 296 296 296 296 297 297 297 297 297 297 297 297 297 297 297 297 297 297 298 298 298 298 298 298 298 299 299 299 299 299 298 298 298 298 298 298 298 298 298
290 290 290 290 290 290 290 290 290 290 290 290 290 290 290 291 291 291 291 291 291 291 291 292 292 292 292 292 292 292 293 293 293 293 293 293 293 293 294 294 294 294 295 295 295 295 296 296 296 296 296 297 297 297 297 297 297 297 297 297 297 297 297 297 297 297 297 297 297 298 297 298 298 298 298 298 298 298 298 298 298 298 297 297 297 297
290 290 290 290 290 290 290 291 291 291 291 291 291 291 291 291 291 291 291 291 292 292 292 292 292 292 292 292 293 293 293 293 293 293 293 293 293 293 294 294 294 294 295 295 295 296 296 296 296 296 296 296 296 297 297 297 297 297 297 297 297 297 297 297 297 297 297 297 297 297 297 297 298 298 298 297 297 297 297 297 297 297 297 297 297 297
290 290 290 290 290 291 291 291 291 291 291 291 291 291 291 291 291 291 292 292 292 292 292 292 292 292 293 293 293 293 293 293 293 293 293 293 294 294 294 294 294 294 295 295 295 295 295 296 296 296 296 296 296 296 296 296 296 296 296 296 296 296 296 296 296 296 296 296 296 297 297 297 297 297 297 297 297 297 297 297 296 296 296 296 296 296
291 291 291 291 291 291 291 291 291 291 291 291 291 291 291 291 291 291 292 292 292 292 292 292 293 293 293 293 293 293 293 293 293 293 293 293 293 294 294 294 294 294 294 294 294 294 294 295 295 295 295 295 295 295 295 295 295 295 295 295 295 295 295 295 295 295 296 296 296 296 296 296 296 296 296 296 296 296 296 296 296 296 296 296 295 295
291 291 291 291 291 291 291 291 291 291 291 292 292 292 292 292 292 292 292 292 292 293 293 293 293 293 293 293 293 293 293 293 293 293 293 293 293 293 293 293 293 293 293 293 294 294 294 294 294 294 294 294 294 294 294 294 294 294 294 295 295 295 295 295 295 295 295 295 295 295 295 295 295 296 296 296 296 296 296 296 295 295 295 295 295 295
291 291 292 292 292 292 292 292 292 292 292 292 292 292 292 292 293 293 293 293 293 293 293 293 293 293 293 293 293 293 293 293 293 293 293 293 293 293 293 293 293 293 293 293 293 293 293 293 293 293 294 294 294 294 294 294 294 294 294 294 294 294 294 294 294 294 295 295 295 295 295 295 295 295 295 295 295 295 295 295 295 295 295 295 294 294
292 292 292 292 292 292 292 292 292 292 292 292 293 293 293 293 293 293 293 293 293 293 293 293 293 293 293 293 293 293 293 293 293 293 293 293 293 293 293 293 293 293 293 293 293 294 294 293 293 294 294 294 294 294 294 294 293 293 293 293 293 293 294 294 294 294 294 294 294 295 295 295 295 295 295 295 295 295 295 295 294 294 294 294 294 294
292 292 292 292 292 292 293 293 293 293 293 293 293 293 293 293 293 293 293 293 293 293 293 293 293 293 294 294 294 294 294 294 293 293 293 293 293 293 293 293 293 293 293 293 293 294 294 294 294 294 294 294 294 294 294 293 293 293 293 293 293 293 294 294 294 294 294 294 294 294 295 295 295 295 295 295 294 294 294 294 294 294 294 294 294 294
293 293 293 293 293 293 293 293 293 293 293 293 293 293 293 293 293 293 294 294 294 294 294 294 294 294 294 294 294 294 294 294 294 294 293 293 293 293 293 293 293 293 293 293 293 294 294 294 294 294 294 294 294 294 294 293 293 293 293 293 293 293 294 294 294 294 294 294 294 295 295 295 295 295 294 294 294 294 294 294 294 294 294 294 294 294
294 294 294 294 294 294 294 294 294 294 294 294 293 293 293 294 294 294 294 294 294 294 294 294 294 294 294 294 294 294 294 294 294 294 293 293 293 293 293 293 293 293 293 293 293 293 293 293 293 294 294 294 294 294 293 293 293 293 293 293 293 294 294 294 294 294 294 294 295 295 295 295 295 295 295 294 294 294 294 294 294 294 294 294 294 294
294 294 294 294 294 294 294 294 294 294 294 293 293 293 294 294 294 294 294 294 294 294 294 294 294 294 294 294 294 294 294 294 294 294 294 294 293 293 293 293 293 293 293 293 293 293 293 293 293 293 294 294 294 293 293 293 293 293 293 294 294 294 294 294 294 294 294 294 295 295 295 295 295 295 295 295 295 295 295 294 294 294 294 294 294 294
293 293 293 294 294 294 294 294 294 294 293 293 293 293 293 293 293 293 293 294 294 294 294 294 294 294 294 294 294 294 294 294 294 294 294 294 294 293 293 293 293 293 293 293 293 293 293 293 293 293 293 293 293 293 293 293 293 293 293 294 294 294 294 294 294 294 294 294 295 295 295 295 295 295 295 295 294 294 294 294 294 294 294 294 294 294
293 293 293 293 293 293 293 293 293 293 293 293 293 293 293 293 293 293 293 294 294 294 294 294 294 294 294 294 294 294 294 294 294 294 294 294 294 294 294 293 293 293 293 293 293 293 293 293 293 293 293 293 293 293 293 293 293 293 293 293 294 294 294 294 294 294 294 294 294 294 294 294 294 295 295 294 294 294 294 294 294 294 294 294 294 293
293 293 293 293 293 293 293 293 293 293 293 293 293 293 293 293 293 293 294 294 294 294 294 294 294 294 294 294 294 294 294 294 294 294 294 294 294 294 294 294 293 293 293 293 293 293 293 293 293 293 293 293 293 293 293 293 293 293 293 293 293 293 294 294 294 294 294 294 294 294 294 294 294 294 294 294 294 294 294 294 294 294 294 294 293 293
293 293 293 293 293 293 293 293 293 293 293 293 293 293 293 293 293 293 293 293 294 294 294 294 294 294 294 294 294 294 294 294 294 294 294 294 294 294 294 294 294 294 293 293 293 293 293 293 293 293 293 293 293 293 293 293 293 293 293 293 293 293 293 293 294 294 294 294 294 294 294 294 294 294 294 294 294 294 294 294 294 294 293 293 293 293
292 293 293 293 294 294 293 293 293 293 293 292 293 293 293 293 293 293 293 293 293 293 293 293 293 293 293 294 294 294 294 294 294 294 294 294 294 294 294 294 294 294 294 294 293 293 293 293 293 293 293 293 293 293 293 293 293 293 293 293 293 293 293 293 293 294 294 294 294 294 294 294 294 294 294 294 294 294 294 294 293 293 293 293 293 293
293 293 293 293 293 293 294 293 293 293 293 293 293 293 293 293 293 293 293 292 292 292 292 292 292 292 292 293 293 294 294 294 294 294 294 294 294 294 294 294 294 294 294 294 294 293 293 293 293 293 293 293 293 293 293 293 293 293 293 293 293 293 293 293 293 293 294 294 294 294 294 294 294 294 294 293 293 293 293 293 293 293 293 293 293 293
293 293 293 293 293 293 294 294 294 294 294 294 294 293 293 293 292 292 292 291 291 291 291 291 291 291 292 292 292 293 293 294 294 294 294 294 294 294 294 294 294 294 294 294 294 293 293 293 293 293 293 293 293 293 293 293 293 293 292 293 293 293 293 293 293 293 293 294 294 294 294 294 294 294 294 293 293 293 293 293 293 293 293 293 292 292
293 293 293 293 293 293 294 294 294 294 294 294 293 293 292 292 292 291 291 291 290 290 290 290 290 290 290 290 291 292 292 293 293 294 294 294 294 294 294 294 294 294 294 294 293 293 293 293 293 293 293 293 293 293 293 293 292 292 292 292 292 293 293 293 293 293 293 293 293 293 293 293 293 293 293 293 293 293 293 293 293 292 292 292 292 292
292 292 293 293 293 293 294 294 294 293 293 292 292 291 291 291 291 291 290 290 290 289 289 289 289 289 289 289 290 290 291 291 292 293 293 294 294 294 294 294 294 294 293 293 293 293 293 293 293 293 293 293 293 293 292 292 292 292 292 292 292 292 293 293 293 293 293 293 293 293 293 293 293 293 293 293 293 293 292 292 292 292 292 291 291 291
292 292 293 293 293 292 292 292 291 291 290 290 290 290 290 290 290 290 290 290 289 289 289 289 288 288 288 288 289 289 289 290 290 291 292 293 293 293 293 294 293 293 293 293 293 293 293 293 293 293 293 293 292 292 292 292 292 292 292 292 292 292 292 292 293 293 293 293 293 293 293 293 293 293 293 293 293 292 292 292 292 291 291 291 291 290
292 292 292 292 291 290 290 289 289 288 288 288 288 289 289 289 289 289 289 289 289 289 289 288 288 288 288 288 288 288 288 288 289 290 292 292 293 293 293 293 293 293 293 293 293 293 293 293 293 293 293 292 292 292 292 292 291 291 291 291 291 292 292 292 292 292 292 293 293 293 293 293 293 293 293 292 292 292 292 292 291 291 291 290 290 290
292 291 291 290 289 288 288 287 287 287 287 287 287 287 287 288 288 288 288 288 288 288 288 288 288 288 288 288 287 287 287 288 289 290 291 291 291 292 292 292 292 292 292 292 292 292 293 293 292 292 292 292 292 291 291 291 291 291 291 291 292 292 292 292 292 291 291 292 292 292 292 292 292 292 292 292 292 292 291 291 291 291 290 290 290 289
290 289 289 288 287 287 287 287 287 287 287 287 286 286 286 286 286 286 286 287 287 287 287 287 287 287 288 287 287 287 287 287 288 288 289 289 289 290 290 291 291 291 291 292 292 292 292 292 292 292 292 291 291 291 291 291 291 291 291 291 291 291 291 291 291 291 291 291 291 291 291 291 291 292 292 292 291 291 291 291 291 290 290 290 289 289
288 288 287 287 286 286 286 286 286 286 286 286 286 286 286 286 286 286 286 286 286 286 286 286 287 287 287 287 287 287 287 287 287 287 287 288 288 289 289 289 290 290 290 291 291 291 291 291 291 291 291 291 291 291 291 291 291 291 291 291 291 291 291 291 291 291 291 291 291 290 290 290 290 290 291 291 291 291 291 290 290 290 290 289 289 289
288 287 287 286 286 286 286 286 286 286 286 286 286 285 285 285 285 285 286 286 286 286 285 286 286 286 286 286 287 287 287 286 286 287 287 287 288 288 289 290 290 290 290 290 291 291 291 291 291 291 291 291 291 291 291 291 291 291 291 291 291 291 291 291 291 291 291 291 290 290 290 290 290 289 289 290 290 290 290 290 289 289 289 289 289 289
287 286 286 286 286 286 286 286 286 286 286 285 285 285 285 285 285 285 285 285 285 285 285 285 285 285 286 286 286 286 286 286 286 287 287 288 288 289 289 289 289 289 289 290 290 290 291 291 291 291 291 291 291 291 291 291 291 291 291 291 291 291 291 291 291 291 291 291 290 290 290 290 290 289 289 289 289 289 288 288 288 288 288 288 289 289
286 286 286 286 286 286 286 286 286 285 285 285 285 285 285 285 285 285 285 285 285 285 285 285 285 285 285 286 286 286 286 286 287 287 287 288 288 288 288 288 287 287 287 288 288 289 290 290 290 291 291 291 291 291 291 291 291 291 291 291 291 291 291 291 291 291 291 291 290 290 290 290 290 289 289 289 288 288 288 288 287 287 288 288 289 289
286 286 286 286 286 286 286 285 285 285 285 285 285 284 284 284 284 284 284 284 284 284 285 285 285 285 285 285 285 286 286 286 286 286 287 287 287 288 288 287 287 287 287 287 287 287 288 288 289 289 290 291 291 291 291 291 291 291 291 291 291 291 291 291 291 291 291 291 290 290 290 290 290 289 289 289 288 288 288 288 287 287 287 288 288 288
285 285 285 285 285 285 285 285 285 285 285 284 284 284 284 284 284 284 284 284 284 284 284 284 284 284 284 285 285 285 285 285 285 285 285 286 286 287 287 287 287 287 287 287 287 287 287 288 288 288 289 289 290 290 291 291 291 291 291 291 291 291 291 291 291 290 290 290 290 290 290 290 290 289 289 289 288 288 288 288 287 287 287 287 287 287
285 285 285 285 285 285 285 285 285 285 284 284 284 284 284 284 284 284 284 284 284 284 284 284 284 284 284 284 284 284 285 285 285 285 285 285 286 286 287 287 287 287 287 287 287 287 288 288 288 288 288 288 289 289 290 290 290 290 290 290 290 290 290 290 290 290 290 290 290 290 290 290 289 289 289 289 288 288 288 288 287 287 287 287 287 287
285 285 286 286 285 285 285 285 285 284 284 284 284 284 283 283 284 284 284 284 284 284 284 284 284 284 284 284 284 284 285 285 285 285 285 285 285 286 286 286 286 286 287 287 287 287 288 288 288 288 288 288 288 288 289 289 289 289 289 289 290 290 290 290 290 290 290 290 290 290 290 290 289 289 289 288 288 288 288 287 287 287 287 287 287 287
286 286 286 285 285 285 285 284 284 284 284 283 283 283 283 283 284 284 284 284 284 283 283 283 284 284 284 284 284 284 284 284 284 284 284 285 285 285 285 286 286 286 286 287 287 287 288 288 288 288 288 288 288 288 288 288 289 289 289 289 289 289 289 290 290 290 290 290 290 290 290 290 289 289 289 288 288 288 288 287 287 287 287 287 287 287
286 286 285 285 284 284 284 283 283 283 283 283 283 283 284 284 284 284 284 283 283 283 283 283 283 284 284 284 284 284 284 284 284 284 284 284 285 285 285 285 285 285 286 286 287 287 288 288 288 288 288 288 288 288 289 289 289 289 289 289 289 289 289 289 290 290 290 290 290 290 290 289 289 289 288 288 288 288 288 287 287 287 287 287 287 287
285 284 284 283 283 283 283 283 283 283 283 283 284 284 284 284 284 284 283 283 283 283 283 284 284 284 284 284 284 284 284 284 284 284 284 285 285 285 285 285 285 285 286 286 286 287 287 288 288 288 288 289 289 289 289 289 289 289 289 289 289 289 289 289 289 290 290 290 290 290 290 289 289 289 288 288 288 288 287 287 287 287 287 287 287 287
283 283 283 283 283 283 283 283 283 283 283 283 284 283 283 283 283 283 283 283 283 283 284 284 284 284 284 284 284 284 284 284 285 285 285 285 285 285 285 285 285 285 285 286 286 287 287 287 288 288 288 289 289 289 289 290 290 290 290 290 290 289 289 289 289 290 290 290 290 290 289 289 289 288 288 288 288 288 287 287 287 287 287 287 287 287
283 283 283 283 283 283 283 283 283 283 283 283 283 283 283 283 283 283 283 283 283 284 284 284 284 284 284 284 284 285 285 285 285 285 285 285 285 285 285 285 285 285 285 286 286 286 287 287 287 287 288 288 288 289 289 289 289 289 289 289 290 289 289 289 289 290 290 290 290 289 289 289 289 288 288 288 288 287 287 287 287 287 287 287 287 287
283 283 283 283 283 283 283 283 283 283 283 283 283 283 283 283 283 284 284 284 284 284 284 284 284 284 285 285 285 285 285 285 285 285 285 285 285 285 285 286 286 286 286 286 286 286 286 287 287 287 287 288 288 288 288 289 289 289 289 289 289 289 289 289 290 290 290 289 289 289 289 289 288 288 288 288 288 287 287 287 287 287 287 287 287 287
283 283 283 283 283 283 283 283 283 283 283 283 283 283 283 284 284 284 284 284 284 284 285 285 285 285 285 285 285 285 285 285 285 285 285 285 285 285 286 286 286 286 286 286 286 286 286 286 286 287 287 287 288 288 288 288 289 289 289 289 289 289 289 289 289 289 289 289 289 289 289 288 288 288 288 288 288 287 287 287 287 287 287 287 287 287
283 283 283 283 283 283 283 283 283 283 283 283 283 283 284 284 284 284 285 285 285 285 285 285 285 285 285 285 285 285 285 285 285 285 285 285 285 286 286 286 286 286 286 286 286 286 286 286 286 287 287 288 288 288 288 288 288 289 289 289 289 289 289 289 289 289 289 289 289 289 288 288 288 288 288 288 288 287 287 287 287 287 287 287 287 287
283 283 283 283 283 283 283 283 283 283 283 283 284 284 284 284 285 285 285 285 284 284 284 284 285 285 285 284 284 284 284 284 284 285 285 285 285 286 286 286 286 286 286 286 286 286 286 286 286 287 287 288 288 288 288 288 289 289 289 289 289 289 289 289 289 289 289 289 289 288 288 288 288 288 288 287 287 287 287 287 287 287 287 287 287 286
283 283 283 283 283 283 283 283 283 283 284 284 284 284 284 285 285 284 284 284 284 284 284 284 284 284 284 284 284 284 284 284 285 285 285 285 286 286 286 286 287 287 286 286 286 286 287 287 287 287 287 288 288 288 288 288 288 289 289 289 289 289 289 289 289 289 289 289 288 288 288 288 288 288 287 287 287 287 287 287 287 287 287 286 286 286
282 282 282 282 283 283 283 283 283 284 284 284 284 284 285 284 284 284 283 283 283 284 284 284 284 284 284 284 284 284 285 285 285 285 286 286 286 286 286 287 287 287 287 287 287 287 287 287 288 288 288 288 288 288 288 288 288 288 289 289 289 289 289 289 289 289 288 288 288 288 288 288 287 287 287 287 286 286 286 286 287 286 286 286 286 286
282 282 282 283 283 283 283 283 284 284 284 284 284 285 284 284 283 283 283 283 283 284 284 284 284 284 284 284 285 285 285 286 286 286 286 286 286 286 286 287 287 287 287 287 287 287 287 287 287 288 288 288 288 288 288 288 288 288 288 288 288 288 288 288 288 288 288 288 288 287 287 287 287 287 287 287 286 286 286 286 286 286 286 286 286 286
Wind_Speed
21 22 22 22 23 23 24 24 25 26 27 27 27 27 27 27 27 28 29 30 30 30 30 30 30 30 30 29 29 29 29 28 28 27 27 27 27 26 26 26 26 25 25 25 25 25 25 25 25 25 25 25 25 25 25 25 25 25 25 25 25 25 25 25 24 24 24 24 24 25 24 24 24 24 25 27 27 27 26 25 25 24 24 23 22 22
21 22 22 22 22 23 24 24 24 25 26 27 28 28 28 28 29 30 30 30 29 28 28 29 29 29 30 30 30 30 29 28 28 27 27 27 26 26 26 26 25 25 25 24 24 24 24 24 24 25 25 24 25 24 25 25 25 24 24 24 24 24 24 24 24 24 24 24 24 24 24 24 24 25 27 28 27 26 25 24 24 24 24 23 23 23
22 22 22 22 22 22 23 24 24 25 26 27 28 28 28 29 29 29 29 29 28 27 27 27 28 29 30 30 31 30 29 28 27 27 27 26 26 26 26 26 25 25 24 24 24 24 24 24 25 24 24 24 24 24 24 24 24 23 23 23 23 23 23 23 23 23 23 23 23 23 24 24 25 26 28 27 26 25 24 24 24 24 24 23 23 23
21 21 22 22 22 22 23 24 25 25 26 26 27 27 28 28 29 28 28 28 28 28 28 28 28 29 29 30 30 29 28 27 27 26 26 26 26 26 26 25 25 25 25 25 25 24 24 24 24 24 23 23 23 22 22 22 22 22 21 21 21 21 21 21 21 21 21 22 22 23 23 23 24 25 26 25 25 24 23 23 23 23 23 22 22 22
22 21 22 22 22 22 23 24 24 25 25 25 26 27 27 27 27 27 28 28 28 28 29 29 28 28 28 29 29 29 28 27 26 26 26 26 26 26 26 26 25 25 25 24 24 24 23 23 23 22 22 22 21 21 21 21 20 20 20 20 20 20 20 20 20 20 20 20 21 22 22 23 23 23 23 23 23 22 22 22 22 21 21 20 20 21
23 22 22 21 22 22 23 24 24 24 24 24 25 25 26 26 26 26 27 27 28 28 28 28 28 28 28 29 29 29 28 27 27 27 27 27 26 26 26 25 25 25 24 24 23 23 22 22 22 21 21 21 21 20 20 20 20 20 20 20 20 20 20 20 20 21 20 20 20 21 22 22 22 21 21 21 21 21 21 21 20 20 20 20 20 21
24 23 22 22 22 23 23 24 24 23 22 22 23 24 25 25 25 25 26 27 27 27 28 28 28 28 28 28 28 28 28 27 27 27 27 27 26 26 25 24 24 24 23 23 23 22 22 21 21 21 20 20 20 20 20 20 20 21 21 21 21 21 21 21 21 21 21 21 21 22 22 22 21 21 20 20 20 20 20 20 20 20 21 21 22 23
24 24 23 22 22 23 23 23 23 23 22 21 21 22 23 24 24 25 25 26 26 27 27 27 28 28 28 27 27 27 27 27 27 28 28 27 26 26 24 24 23 23 22 22 22 22 21 21 21 20 20 20 20 20 20 20 20 21 21 21 21 21 21 21 21 21 22 22 22 22 22 21 21 21 21 21 20 20 20 20 21 22 22 23 23 24
23 24 24 23 23 23 23 24 24 23 22 21 20 21 22 24 25 25 26 25 25 25 25 25 26 27 27 27 26 26 26 26 26 27 27 26 26 25 24 23 23 22 22 22 21 21 21 21 21 20 20 20 20 20 20 20 20 20 20 20 20 20 20 20 20 21 21 21 22 22 22 22 22 22 22 22 22 21 21 22 23 23 23 23 23 24
24 24 24 24 23 22 22 24 25 25 23 22 21 21 22 22 23 24 25 25 25 25 23 23 24 26 27 27 26 25 25 25 26 25 25 25 25 24 24 23 23 23 22 22 22 21 21 21 20 20 20 20 19 19 19 19 19 19 19 19 19 19 19 19 19 19 19 19 20 20 21 21 22 22 22 23 23 23 23 23 23 23 23 23 23 23
23 24 23 23 23 23 23 23 24 24 22 21 21 22 22 21 21 21 21 23 25 25 24 23 23 24 25 26 26 25 24 24 25 26 26 26 25 25 24 24 24 24 23 23 22 22 21 21 20 20 19 19 19 19 19 19 19 18 18 18 18 18 18 18 18 18 18 18 18 18 19 19 20 20 21 22 22 23 23 23 23 22 22 22 22 22
22 22 21 21 21 21 22 23 22 22 21 20 19 19 19 20 20 20 20 21 22 24 24 24 24 24 24 24 25 24 24 24 25 26 27 27 26 25 25 25 25 25 24 24 23 22 22 21 20 20 20 19 19 19 19 19 19 18 18 18 18 18 18 18 18 18 18 18 18 18 18 18 19 19 19 20 20 21 21 21 21 21 21 21 22 22
21 20 20 20 20 20 20 21 21 21 20 19 18 17 17 19 20 19 19 20 21 22 23 24 25 26 26 25 24 23 23 24 25 26 27 26 26 25 24 25 25 25 25 24 24 23 22 21 21 20 20 20 20 19 19 19 19 19 19 19 19 19 19 19 19 19 19 18 18 18 18 18 18 18 18 19 19 19 19 20 20 20 21 21 21 22
19 19 19 19 19 19 19 19 19 19 20 20 20 21 21 20 20 19 19 20 21 23 23 23 25 26 26 25 23 22 22 23 24 25 26 26 25 24 23 24 25 25 24 24 24 24 23 22 21 21 21 21 21 21 21 21 21 21 21 21 21 20 20 20 20 19 19 19 18 18 18 17 17 18 18 18 18 18 19 19 19 20 20 20 21 22
17 17 16 15 16 17 18 19 19 20 22 23 23 23 22 21 20 19 19 19 20 22 22 22 23 25 26 25 23 21 21 22 23 24 25 26 25 24 22 22 24 25 25 25 25 25 24 23 23 23 23 23 23 23 23 23 22 22 21 21 21 20 20 20 19 19 19 19 18 18 18 18 17 17 17 18 18 18 19 19 19 20 20 21 22 22
17 16 15 14 15 17 19 20 20 21 23 24 23 21 19 18 18 18 18 18 19 19 19 18 18 20 23 24 22 20 19 20 21 22 24 25 25 23 21 21 22 24 25 25 26 26 26 25 25 25 25 25 25 24 24 23 22 22 21 20 20 20 20 19 19 19 19 19 18 18 18 18 18 18 18 18 18 19 19 19 20 20 21 22 23 23
19 17 16 15 15 17 20 22 22 23 22 20 18 17 16 16 17 17 18 18 18 17 16 14 9 7 12 20 22 18 16 15 17 19 21 23 24 23 20 19 21 24 25 26 26 27 26 26 25 26 26 25 25 24 23 23 22 21 21 20 20 20 20 19 19 19 19 19 19 18 18 18 18 18 18 18 18 19 19 19 20 21 22 22 23 23
17 15 15 14 15 18 21 23 22 21 18 16 15 14 15 17 17 18 18 19 18 17 16 15 11 7 6 13 18 19 16 15 15 17 20 23 25 24 21 20 21 23 26 27 27 27 26 26 26 26 26 25 24 23 23 22 21 21 20 20 20 20 20 20 20 20 19 19 19 19 19 18 18 18 18 18 18 18 19 19 20 21 21 22 22 23
15 15 14 15 18 20 22 22 21 18 15 14 14 15 16 18 18 19 19 19 19 19 18 16 14 14 13 16 21 23 21 19 18 18 19 22 25 25 23 20 21 23 26 28 28 27 26 26 26 26 26 25 24 23 22 21 21 21 21 21 21 21 21 20 20 20 20 19 19 19 19 19 18 18 18 18 18 19 19 19 20 20 21 21 22 22
16 16 16 17 19 20 21 20 19 17 16 15 16 16 17 19 19 19 19 19 19 19 18 16 16 16 17 20 23 25 24 22 20 19 19 21 24 25 24 21 21 23 26 28 28 27 26 26 26 26 26 25 23 22 22 22 22 22 22 22 22 22 21 21 20 20 20 19 19 19 19 18 18 18 18 18 18 18 18 19 19 20 20 21 21 22
19 18 19 19 19 19 19 20 20 20 20 19 19 19 19 18 18 17 16 15 15 15 15 15 15 17 18 20 23 25 26 24 21 18 16 17 21 24 24 22 22 23 26 28 28 27 25 25 26 26 25 24 23 22 21 21 22 22 22 22 22 22 22 21 21 20 20 19 19 19 19 18 18 18 18 18 18 18 18 18 19 19 20 20 21 21
22 21 21 21 20 21 21 23 24 24 24 23 21 20 18 16 14 12 12 12 13 14 15 15 17 19 20 21 23 26 26 24 22 18 15 14 18 23 24 22 21 22 25 27 27 26 24 24 25 25 25 24 23 22 21 21 22 22 23 23 23 22 22 21 21 20 20 19 19 19 18 18 18 18 18 18 17 17 18 18 18 19 19 20 20 21
25 24 23 23 23 23 24 25 25 25 25 24 23 21 18 15 13 12 13 14 16 17 18 20 21 22 22 22 23 25 25 24 23 20 16 10 14 21 24 23 21 22 24 26 27 25 24 24 24 25 24 23 22 22 21 21 22 23 23 23 23 22 22 21 21 20 20 19 19 19 18 18 18 18 17 17 17 17 17 17 18 18 18 19 19 20
25 25 25 25 25 25 25 24 24 23 22 23 23 22 20 17 15 15 16 17 18 19 19 19 20 20 20 20 20 21 21 21 21 19 16 12 14 20 22 21 21 22 25 27 26 25 24 24 24 25 24 23 22 22 21 22 22 23 23 23 23 22 22 21 21 20 20 19 19 19 18 18 18 17 17 17 17 17 16 17 17 17 18 18 19 20
24 25 26 27 27 26 25 24 23 22 21 22 22 21 18 17 17 18 18 19 18 18 17 18 17 17 17 17 17 17 18 18 17 17 15 13 15 19 21 20 20 21 24 26 26 24 24 24 25 24 24 23 22 22 22 22 23 23 23 23 23 22 22 21 20 20 19 19 19 18 18 18 17 17 17 16 16 16 16 16 16 16 17 18 18 19
24 25 26 27 27 26 26 25 24 22 22 21 20 19 18 19 19 20 20 18 17 16 16 15 14 14 16 16 16 16 16 16 15 15 15 13 14 17 20 20 19 20 22 24 25 24 23 24 24 24 23 22 22 22 22 22 22 23 23 22 22 22 21 20 20 19 19 19 18 18 18 17 17 16 16 16 16 16 16 16 16 16 16 17 17 18
25 25 25 25 24 23 22 22 21 21 20 19 18 19 19 20 19 18 17 16 16 15 14 11 9 10 14 14 14 15 16 15 15 16 16 16 15 16 18 19 19 19 21 22 23 23 22 23 23 23 22 22 22 22 22 22 22 22 22 22 21 21 20 20 19 19 18 18 18 17 17 17 16 16 16 16 16 16 16 16 15 15 16 16 17 17
25 24 22 21 19 18 18 19 19 20 20 20 20 20 19 18 17 16 15 15 15 14 13 10 7 6 8 11 14 16 17 17 18 18 18 16 14 14 17 18 18 18 18 20 21 22 22 22 22 22 22 22 22 22 22 22 21 21 20 20 19 18 18 17 17 17 17 17 17 17 16 16 16 15 15 15 15 15 15 15 15 15 15 15 17 18
24 21 18 17 16 17 18 20 21 21 21 20 20 18 16 15 15 16 16 16 15 13 13 12 11 9 10 13 15 17 18 17 17 16 14 12 12 13 15 15 15 15 14 15 16 18 19 20 20 21 21 21 21 21 21 20 19 18 18 17 15 15 14 14 15 15 16 16 16 15 15 15 15 15 15 15 15 15 14 14 14 14 15 16 17 18
18 16 15 16 17 19 20 21 21 21 21 19 18 16 15 14 15 17 18 17 16 14 13 13 13 13 12 12 12 11 13 14 12 11 11 11 10 11 13 12 12 12 11 9 7 8 11 15 16 17 18 18 19 19 18 17 17 16 15 14 13 12 12 12 13 13 14 15 15 15 14 14 14 14 14 14 14 14 13 13 13 14 15 16 17 18
13 14 16 19 20 21 21 21 21 21 20 19 18 17 16 15 15 17 17 17 16 15 14 14 14 14 13 9 5 4 6 11 12 11 13 14 13 13 14 13 14 15 13 9 3 1 4 8 11 13 14 15 16 16 16 16 15 15 14 14 13 13 12 12 12 13 13 14 14 14 14 14 14 13 13 13 12 12 13 13 13 13 14 15 16 17
16 18 20 22 22 22 22 21 21 20 20 19 19 18 17 17 16 16 16 17 17 16 15 15 14 14 14 11 8 6 8 14 15 15 15 15 16 16 16 15 16 16 15 13 10 6 4 4 8 13 14 16 17 17 18 18 17 16 16 15 15 14 14 13 13 13 14 14 14 14 14 14 14 14 13 12 12 12 12 12 12 12 13 14 15 16
19 20 22 23 23 23 22 22 21 21 21 20 20 20 19 18 17 16 16 17 17 17 17 16 15 15 15 15 15 14 16 18 18 17 16 15 15 15 15 14 13 13 13 13 13 12 8 7 11 15 16 18 19 20 20 21 20 19 18 17 17 16 16 15 14 15 15 15 15 15 14 14 14 14 14 13 13 12 12 12 11 11 12 13 14 15
20 21 22 23 23 23 23 23 22 22 22 21 21 20 19 19 18 17 17 17 18 18 18 17 16 15 15 15 16 17 18 18 17 16 14 15 14 14 14 13 12 13 13 12 12 12 11 12 12 12 13 15 17 18 19 20 21 20 20 19 18 18 17 16 16 16 16 16 16 15 15 14 14 14 14 14 14 13 13 12 12 12 12 12 13 14
20 21 21 22 22 23 23 23 23 22 21 21 20 20 19 19 18 18 18 18 18 18 19 18 18 17 16 15 15 16 17 17 16 15 14 16 16 15 15 15 15 15 14 14 13 12 12 13 13 12 11 12 14 15 16 17 18 19 19 19 19 18 18 17 17 17 18 18 17 17 15 14 14 14 13 13 13 13 12 12 12 12 11 11 12 13
19 20 20 20 21 21 22 22 22 21 20 20 19 19 19 19 19 19 19 18 18 18 19 19 19 19 19 18 18 18 20 20 20 19 18 20 20 19 17 16 15 15 14 15 15 14 13 14 16 16 15 13 13 14 15 14 15 16 17 17 17 17 17 17 18 18 18 19 18 17 15 14 13 13 13 12 12 12 12 12 12 12 12 11 12 12
18 19 19 19 19 19 19 19 19 18 18 19 19 19 20 20 20 20 19 19 19 19 19 19 19 19 19 20 21 22 23 23 23 22 21 22 22 21 19 17 16 16 15 14 15 15 14 13 14 16 16 14 13 13 13 12 12 13 14 15 15 16 17 18 18 19 19 19 18 17 15 14 13 13 12 12 12 12 12 12 12 11 11 11 11 11
17 17 18 18 17 17 17 17 17 17 17 18 19 20 20 20 20 20 19 19 19 19 19 19 19 19 19 20 21 22 22 23 23 22 22 21 22 22 21 19 18 17 17 16 16 15 14 11 9 9 9 13 15 16 16 14 13 13 14 15 16 17 18 19 19 19 20 19 18 17 15 14 13 13 12 12 12 12 12 11 11 11 10 11 11 11
16 16 16 16 15 15 14 15 16 17 19 20 20 20 20 20 20 19 19 19 18 18 18 18 19 19 19 20 20 21 21 21 22 22 21 21 21 22 21 20 19 18 18 18 18 17 16 13 10 8 6 10 14 17 19 18 17 16 16 17 18 19 20 20 20 20 20 19 18 17 15 14 13 13 13 12 12 12 11 11 10 10 10 10 11 11
14 14 13 13 13 13 14 16 17 19 20 20 20 20 19 19 19 19 18 18 17 17 17 18 18 19 19 20 20 20 20 21 21 21 20 20 21 21 21 21 20 19 18 18 18 18 17 17 16 15 15 14 14 16 17 18 18 18 17 16 16 18 20 20 21 21 20 19 18 17 16 15 14 14 13 12 12 11 11 10 10 9 9 10 11 12
12 12 12 13 14 16 17 18 19 19 19 19 19 19 18 18 18 18 17 17 17 17 17 17 18 18 18 19 19 19 19 20 20 20 20 20 20 20 21 21 21 20 19 19 19 19 18 17 17 17 17 17 17 18 18 18 19 18 17 16 16 18 19 20 20 20 20 20 19 17 16 15 15 14 13 13 12 11 10 10 10 9 9 10 11 12
12 13 14 15 17 18 18 19 19 18 18 17 17 17 17 16 16 16 16 16 17 17 17 17 17 17 18 18 18 19 19 20 20 19 19 19 19 19 20 20 20 20 20 19 19 18 18 17 17 16 16 16 15 15 15 16 17 17 17 17 18 18 18 19 19 20 20 19 18 17 16 15 15 14 13 12 12 11 10 10 10 10 10 10 11 12
13 15 16 17 17 17 17 17 17 16 16 15 15 15 15 16 16 16 16 16 16 17 17 17 16 16 17 17 19 20 20 20 20 19 18 18 18 18 18 19 19 20 20 19 18 17 17 17 16 16 17 16 15 14 13 14 15 16 17 18 17 15 11 13 16 18 18 18 17 16 15 15 14 14 13 12 11 11 10 10 10 10 10 11 11 12
15 16 16 16 16 16 16 15 15 15 14 14 14 15 16 17 17 18 17 16 16 17 17 17 17 16 16 16 18 19 20 20 19 19 18 18 18 17 17 17 18 18 19 19 18 16 16 16 16 16 16 16 15 15 15 15 16 17 18 18 18 16 13 12 13 14 15 15 15 14 14 14 13 13 12 12 11 11 11 10 10 10 11 11 11 11
15 15 15 15 14 14 14 14 14 14 15 15 15 16 17 17 18 18 17 17 17 17 17 17 16 14 13 14 15 17 18 19 19 19 19 19 18 17 17 17 17 17 18 19 18 17 16 15 15 16 16 16 16 16 16 16 16 17 18 18 17 17 18 16 13 12 12 12 12 12 12 12 12 12 12 12 12 11 11 11 11 11 11 10 10 10
15 14 14 13 13 13 13 13 14 15 15 15 15 16 17 17 17 17 17 17 16 16 17 16 15 12 11 12 13 15 16 18 19 20 20 19 19 18 18 18 17 17 17 18 18 19 19 17 17 16 16 16 16 16 17 17 16 17 17 16 15 15 16 15 13 11 10 9 10 10 10 11 11 12 12 12 12 11 11 11 11 11 10 9 9 8
14 13 13 13 13 13 14 15 15 15 15 15 16 16 16 16 16 16 16 15 15 15 15 14 13 12 11 12 13 14 14 16 18 19 19 20 21 21 21 20 19 18 17 17 17 17 18 18 18 18 17 15 14 15 16 17 16 16 15 14 13 13 13 13 13 12 10 9 9 9 9 9 10 10 10 11 11 11 11 11 10 10 9 8 8 7
12 12 12 13 14 14 15 15 15 15 15 15 15 15 15 15 15 14 14 14 14 14 13 13 12 12 12 13 14 14 15 15 17 18 19 20 21 22 23 22 21 20 18 16 15 15 16 16 17 19 19 17 15 14 15 16 16 15 14 12 11 11 12 12 12 11 11 10 9 9 9 9 8 8 8 9 9 10 10 10 9 8 7 7 7 7
12 12 13 14 14 14 14 14 14 14 14 14 14 14 14 14 14 13 13 14 14 14 13 13 12 13 13 14 15 16 16 16 16 17 18 19 20 21 22 22 21 19 18 16 15 14 15 15 16 17 18 19 18 16 15 15 15 14 12 11 10 10 10 10 10 10 10 10 9 9 8 8 8 7 7 7 8 9 9 9 8 7 6 5 5 5
13 13 13 13 13 14 14 14 14 13 13 13 13 12 12 12 13 14 14 15 14 13 13 12 12 13 13 14 15 16 16 16 16 16 16 17 18 19 20 20 19 17 15 13 12 11 11 12 13 14 14 15 16 16 16 15 14 12 11 10 10 9 9 9 8 8 8 8 8 7 7 7 6 6 6 6 7 8 8 9 8 6 4 4 4 4
12 13 13 13 13 13 13 13 13 13 13 13 12 11 11 12 13 14 14 14 14 13 13 13 13 12 13 13 14 14 14 14 14 14 15 16 17 18 18 18 17 14 11 9 7 6 5 5 6 8 9 9 10 11 13 13 12 10 9 9 9 9 8 8 7 6 6 6 6 5 5 5 5 5 6 6 6 6 6 7 7 6 4 4 4 4
Wind_Direction
290 293 295 295 295 294 293 292 292 292 293 293 294 296 297 297 297 297 298 298 297 297 297 298 299 299 300 300 300 299 297 296 294 292 291 289 289 288 288 288 288 288 288 287 287 286 286 285 285 285 284 283 282 281 281 280 280 279 279 278 278 278 278 277 277 277 278 278 278 278 278 277 276 275 273 271 270 268 267 268 270 272 274 275 276 276
293 293 294 294 294 292 291 291 291 291 291 291 292 294 295 296 296 297 297 297 296 295 295 295 296 297 297 298 298 297 295 294 293 292 291 290 289 289 289 289 289 289 288 288 287 287 286 286 285 284 284 283 282 281 280 280 279 278 278 277 276 276 276 276 276 275 275 275 275 276 276 277 276 274 271 270 270 270 271 271 272 273 274 274 274 275
294 294 293 294 292 290 289 290 290 290 289 290 291 292 293 294 294 295 295 296 296 295 293 293 293 293 293 294 295 294 293 292 292 291 291 289 289 289 289 289 289 289 288 288 287 287 286 286 285 285 285 284 284 283 282 281 281 280 279 278 278 278 277 277 277 276 275 274 274 274 273 274 273 272 272 274 275 276 275 275 274 273 273 273 273 273
291 291 292 293 292 289 287 288 290 290 290 290 290 291 292 292 291 292 293 294 295 295 294 294 293 292 291 292 292 293 292 291 291 290 289 289 288 288 288 288 289 288 288 287 287 286 286 286 286 286 286 286 286 285 285 284 284 284 283 282 282 282 281 281 281 280 279 277 275 273 272 271 271 272 275 277 278 278 278 277 276 275 275 274 273 273
288 288 289 291 291 289 288 289 289 290 290 290 290 291 291 290 290 291 293 294 294 294 294 294 293 292 291 291 291 292 292 292 290 289 288 288 288 287 288 288 287 288 287 287 287 286 286 286 286 286 286 285 285 284 284 284 284 283 283 282 282 282 282 282 281 281 281 280 278 277 275 274 274 275 276 278 278 278 278 277 277 277 277 277 276 276
285 286 287 287 287 288 288 288 289 289 289 289 290 290 290 289 289 290 290 292 292 293 293 293 292 291 290 290 290 291 292 292 291 290 288 288 287 287 287 287 287 287 287 286 286 286 286 285 285 284 284 284 283 282 282 281 280 279 279 278 278 278 278 278 277 277 278 278 277 277 276 276 276 276 277 277 277 277 277 276 277 277 278 278 278 278
284 285 286 285 284 285 286 286 286 287 287 287 288 289 289 288 288 288 289 290 291 291 292 292 292 291 290 290 290 291 291 292 291 291 290 289 287 287 286 285 285 285 285 285 285 285 285 284 284 284 283 283 282 282 281 279 278 277 277 277 276 276 276 275 274 274 274 274 274 273 273 274 275 275 276 276 276 276 276 276 277 278 278 278 278 278
282 283 283 284 284 284 284 284 284 285 284 283 284 286 288 289 289 290 290 290 290 290 291 292 292 291 291 290 290 291 291 291 291 291 291 290 289 288 286 286 285 285 284 285 285 285 284 284 284 284 283 283 282 281 280 279 278 278 278 278 278 277 276 275 274 273 272 271 271 271 271 272 272 273 274 274 275 275 276 276 277 277 277 277 277 277
277 280 281 281 281 283 285 284 284 283 282 280 279 281 286 288 290 292 293 292 291 290 290 290 291 291 291 291 291 291 290 290 290 290 290 290 289 289 288 287 286 285 284 284 284 284 284 284 284 284 283 283 283 283 281 281 281 281 280 281 281 280 278 276 274 273 272 271 269 269 268 269 269 270 270 271 272 272 273 274 274 274 274 275 275 275
272 274 277 279 279 279 280 282 283 283 281 278 275 274 277 281 286 289 291 292 291 291 290 289 289 290 292 292 292 291 290 289 288 287 286 286 286 286 285 284 284 284 283 283 283 283 283 283 283 283 283 283 283 282 282 282 282 282 282 282 281 281 280 279 277 276 274 273 272 270 268 268 267 266 266 267 268 268 269 270 270 271 271 272 273 273
269 270 273 275 277 276 276 277 279 282 281 278 275 272 272 272 275 280 284 287 290 291 291 290 288 288 290 292 292 292 291 289 288 288 286 285 284 283 282 282 281 281 281 281 282 282 282 282 282 282 282 282 281 281 281 281 280 281 281 280 280 280 280 279 278 277 276 275 274 273 271 270 269 268 267 266 266 266 267 267 268 269 270 270 271 272
268 270 271 273 275 275 275 276 278 281 282 280 276 273 271 270 271 272 273 278 284 288 291 292 290 288 287 288 290 291 290 288 287 287 287 286 285 284 283 282 283 283 283 284 284 285 285 285 286 285 285 285 284 284 283 282 282 281 280 280 280 279 278 278 277 276 275 274 273 272 271 270 270 269 268 267 267 266 266 267 267 268 268 269 270 271
266 268 269 271 271 272 274 277 279 281 280 277 275 273 273 275 275 273 270 273 278 283 288 291 291 289 287 286 286 287 287 286 286 286 285 284 283 283 283 283 284 284 286 287 288 289 290 290 290 290 290 290 289 289 288 287 286 285 283 282 281 280 278 277 276 275 274 273 273 272 271 270 269 268 267 267 266 266 266 266 266 266 267 268 269 270
266 267 268 268 268 268 270 272 274 276 277 275 274 275 277 279 279 277 275 274 277 281 284 286 286 287 288 287 285 283 282 282 282 283 283 281 281 280 280 281 282 284 285 285 286 288 290 290 290 291 292 292 292 292 292 291 290 289 288 286 285 283 281 279 277 276 274 274 273 272 271 270 269 268 267 266 266 265 265 265 265 266 266 267 268 270
266 267 266 265 265 266 268 270 271 272 274 274 274 274 276 277 277 276 276 276 279 281 283 282 282 284 287 286 284 281 279 277 277 278 279 280 280 279 278 279 281 283 284 283 283 286 289 288 288 290 292 293 293 293 293 293 292 291 290 288 286 284 282 280 278 277 275 274 273 272 271 270 269 268 267 266 266 265 264 264 264 265 265 266 269 271
271 269 267 266 266 268 270 273 272 271 271 272 271 271 272 273 274 275 276 277 280 282 282 281 281 284 287 288 287 283 278 274 272 273 276 279 280 280 278 277 278 280 281 280 281 283 286 286 287 288 290 291 293 293 293 292 290 289 288 286 285 283 281 279 278 276 275 274 272 271 270 269 269 268 267 266 266 265 264 264 264 265 266 268 270 272
276 273 271 272 274 276 279 279 276 273 271 270 268 267 269 271 275 277 278 279 281 281 279 277 277 283 288 291 292 289 283 274 271 272 275 278 281 282 280 276 275 276 279 279 279 280 281 282 283 285 287 289 291 292 291 290 288 287 286 284 282 280 278 277 276 275 274 272 271 270 270 269 268 268 267 267 266 265 265 265 265 266 268 270 271 273
274 274 278 282 285 286 286 284 280 275 270 268 270 273 275 276 277 278 278 278 277 276 274 272 270 269 278 287 290 290 288 281 275 274 276 278 280 282 281 277 274 275 276 277 278 278 278 279 280 282 284 286 288 288 288 287 285 284 282 281 280 279 277 276 275 274 273 272 271 270 270 269 268 268 267 267 266 266 266 266 267 268 269 271 272 274
276 280 284 288 289 289 288 285 280 273 267 268 274 279 279 278 277 275 273 272 271 269 269 268 268 268 271 276 282 286 287 284 278 274 274 276 279 281 282 278 275 274 274 275 276 277 277 277 278 279 281 282 284 285 285 284 283 282 281 280 279 278 278 276 275 274 273 272 272 271 270 269 269 268 268 267 267 267 267 268 268 269 270 272 273 275
283 286 288 289 289 289 288 284 276 268 266 271 276 277 275 274 274 272 271 271 271 271 271 271 271 272 274 277 281 285 287 284 279 273 270 272 276 279 280 278 275 273 273 274 275 276 275 275 276 277 278 280 281 283 284 284 283 283 282 281 280 278 277 276 275 274 274 273 272 272 271 271 270 269 268 268 267 267 268 268 269 270 271 273 274 275
286 284 283 283 285 287 287 284 277 271 270 274 275 273 271 271 272 273 276 280 284 286 287 285 283 283 284 284 285 287 288 285 280 274 270 270 273 276 278 278 276 274 273 274 275 275 274 273 274 275 277 278 281 283 284 284 284 284 282 281 279 278 277 277 276 275 274 273 272 272 272 271 270 269 269 268 268 268 268 268 269 271 272 274 275 276
280 278 277 279 283 285 285 283 281 278 277 276 273 270 269 271 276 284 294 302 305 305 301 297 295 293 292 289 288 288 287 283 278 274 272 271 271 274 277 278 277 274 273 274 276 275 274 272 272 273 276 278 280 282 283 283 284 284 282 280 279 277 277 276 275 274 273 273 272 272 271 271 270 269 268 268 268 268 268 269 270 272 273 275 276 277
274 274 278 282 285 286 286 285 285 285 284 279 274 271 272 277 286 297 307 310 307 303 299 297 296 295 292 289 287 287 285 281 276 273 271 269 270 273 277 279 278 275 274 275 276 276 275 272 271 272 274 276 278 279 281 282 283 282 281 279 278 276 276 275 275 274 273 272 272 272 271 271 270 269 268 268 268 268 269 270 271 273 274 275 277 277
277 280 284 287 288 287 286 285 286 288 287 281 277 276 280 289 300 306 308 305 301 298 297 297 296 295 294 292 290 288 286 283 277 272 267 266 270 273 277 278 277 275 274 275 277 277 275 273 271 271 272 274 275 276 278 281 282 282 280 278 276 275 275 274 273 273 272 272 272 271 271 270 270 269 268 268 268 269 270 271 272 273 276 276 277 277
284 287 289 289 289 288 285 284 283 282 282 281 281 285 295 305 310 308 305 301 299 299 300 300 298 297 297 298 296 292 291 290 283 273 265 269 273 274 276 275 274 272 274 276 277 277 275 273 271 271 271 271 272 274 277 279 281 281 279 277 275 274 273 273 272 272 272 271 271 271 270 270 269 268 268 268 268 269 270 271 273 275 277 278 279 280
287 288 289 290 291 291 290 288 285 283 285 288 294 302 310 313 311 307 303 300 300 301 302 301 297 296 297 298 297 295 296 297 290 279 270 271 275 276 276 274 271 270 272 275 277 276 274 272 271 270 270 270 271 274 277 279 280 280 278 276 274 273 272 272 272 272 271 271 271 270 270 270 269 268 268 268 268 269 270 272 274 276 278 280 281 282
288 288 289 290 292 294 296 296 295 297 300 304 310 314 314 312 309 305 299 298 299 301 301 297 294 294 296 295 294 294 296 297 294 287 279 275 274 275 275 274 272 270 271 273 274 274 272 271 270 270 270 271 273 276 279 280 280 279 277 276 274 273 272 272 272 271 271 271 270 270 270 269 268 268 267 267 268 269 270 272 274 276 278 280 280 280
289 288 288 290 293 297 300 303 305 307 309 310 311 310 309 307 305 300 294 295 298 299 294 290 287 290 294 294 293 294 295 294 291 288 283 275 270 271 274 276 275 272 271 273 274 273 270 268 268 269 271 273 276 279 280 279 278 277 275 274 274 273 273 273 272 271 270 270 270 269 269 269 268 267 266 266 267 268 270 272 275 276 278 279 278 278
287 286 286 289 294 298 301 304 305 307 308 308 308 307 305 301 297 294 292 295 296 294 288 285 285 286 290 292 294 294 293 290 289 291 291 283 276 276 282 284 282 278 275 276 276 274 269 266 266 268 271 275 277 278 278 277 275 273 272 271 272 273 274 274 272 271 269 269 268 268 268 267 266 266 266 265 266 268 270 272 275 277 277 278 277 278
287 289 292 295 299 301 303 306 307 309 310 310 310 308 304 297 292 290 292 294 294 290 286 285 285 286 288 292 294 293 289 286 288 300 313 313 302 294 298 299 296 292 289 288 285 277 270 268 267 268 271 274 276 276 275 274 271 269 267 267 268 269 271 272 271 269 268 266 266 265 265 265 264 265 266 266 266 268 270 272 274 276 276 277 277 278
298 302 304 304 305 307 308 310 311 312 313 313 312 310 307 302 296 294 295 296 293 288 286 286 286 286 286 287 288 284 283 281 286 300 314 316 306 297 301 300 297 294 290 286 287 305 282 277 274 273 273 276 277 277 276 274 271 267 264 263 263 265 267 268 268 266 265 263 262 262 262 262 263 263 264 265 267 269 270 272 273 275 275 276 278 280
308 308 308 308 309 311 313 314 314 315 314 314 314 313 311 308 304 301 299 298 295 292 289 287 287 286 283 279 274 272 275 279 283 292 301 302 296 292 292 289 286 285 282 274 266 262 277 282 280 279 278 278 278 279 278 277 274 269 265 262 262 264 266 267 266 264 263 263 262 261 261 261 262 262 264 265 267 268 269 270 272 274 275 277 279 282
309 309 309 309 310 312 313 315 316 316 316 315 315 315 314 312 309 305 302 300 298 295 292 288 287 286 284 280 276 274 275 277 281 286 291 290 288 288 288 287 287 289 290 281 272 265 266 271 277 278 277 275 275 275 276 275 274 270 266 263 262 264 267 268 267 265 265 264 264 263 263 263 263 263 263 264 265 266 267 267 269 273 276 279 283 287
308 308 308 309 310 312 313 314 315 316 316 316 316 316 316 314 312 309 306 303 300 298 294 288 284 283 284 283 280 278 277 278 280 283 284 283 283 285 291 297 302 306 307 300 292 285 278 276 278 280 278 276 273 271 272 272 271 269 266 263 263 264 267 269 269 267 267 266 265 264 265 265 266 265 265 264 265 265 265 266 267 271 275 280 285 288
309 308 308 310 311 312 313 314 315 315 315 315 315 315 315 314 313 311 309 306 304 301 298 292 287 282 280 280 281 281 281 281 283 283 281 280 282 285 289 292 293 296 298 295 294 293 289 286 285 287 288 286 282 277 273 269 267 264 262 260 261 263 268 270 270 269 267 266 264 264 265 267 267 267 266 266 265 265 266 267 269 271 275 279 283 286
311 310 310 310 312 313 313 313 313 313 313 313 313 313 313 313 313 312 310 309 307 305 302 299 294 288 282 278 277 278 281 283 285 284 283 282 283 284 284 283 282 283 283 283 283 283 284 284 285 285 286 287 287 284 279 272 264 259 256 256 258 261 266 269 269 268 265 263 263 263 265 266 267 266 265 264 264 265 266 268 270 273 276 278 280 283
312 311 310 311 311 311 311 310 310 310 310 311 311 312 313 313 313 312 312 311 310 308 306 303 300 295 290 287 283 282 283 286 288 288 286 285 283 282 279 278 278 277 274 274 276 277 277 279 280 280 279 278 279 281 281 278 270 261 258 258 259 261 264 266 266 264 261 260 259 260 262 263 264 264 262 262 262 263 264 267 270 274 278 280 281 283
312 310 309 310 309 308 307 306 307 308 309 310 310 312 313 314 314 313 313 312 311 309 307 305 302 299 297 295 292 290 290 291 291 291 289 287 284 281 276 276 276 274 271 270 271 273 274 275 277 277 276 274 274 275 277 278 275 271 268 266 265 264 264 263 262 260 257 255 256 257 258 259 260 260 259 259 259 261 264 267 270 274 278 281 282 284
310 309 307 307 307 306 306 306 307 308 310 311 312 314 315 315 315 314 314 313 311 309 306 305 303 301 300 299 296 294 292 291 291 290 288 286 284 280 277 275 274 274 272 270 269 269 268 268 268 270 273 275 275 275 274 273 272 271 271 271 269 266 263 261 259 256 253 251 251 253 255 256 257 257 257 258 258 261 265 268 272 277 281 286 288 290
309 307 306 306 306 306 307 307 308 310 312 314 315 316 317 317 316 316 315 313 310 308 306 305 303 302 301 299 296 294 291 290 290 290 289 287 284 281 278 274 273 272 272 270 268 266 263 263 263 264 265 268 271 272 272 270 269 268 269 270 268 266 264 262 258 254 250 247 247 249 252 253 254 255 256 256 257 260 264 269 274 280 286 293 299 302
308 307 306 306 306 306 306 307 310 313 315 316 317 317 317 317 316 315 314 312 310 309 308 307 306 304 301 298 295 293 293 293 293 293 292 290 288 285 281 276 273 271 271 270 268 266 263 262 263 264 263 264 265 267 267 266 265 265 265 264 264 265 266 263 258 252 247 244 245 247 250 251 252 253 253 254 255 258 262 268 273 279 287 295 302 307
308 306 305 305 305 306 308 312 314 316 317 316 315 314 315 315 313 311 310 309 308 308 309 308 306 304 302 300 298 297 297 297 297 297 295 293 291 288 284 280 275 272 270 268 267 267 267 267 268 269 269 268 267 266 265 266 266 265 264 262 263 263 263 258 252 246 241 240 242 245 247 249 250 251 252 253 254 256 260 264 271 278 287 296 302 307
305 304 303 304 305 308 312 314 315 315 315 314 313 312 312 312 311 309 307 305 305 306 307 306 304 302 300 300 301 302 303 303 303 301 299 297 294 291 287 283 279 276 272 268 267 269 270 271 272 272 274 274 274 274 276 276 276 273 269 267 263 258 253 247 242 238 235 236 239 241 244 245 247 249 251 252 254 256 258 262 269 279 288 296 302 306
305 305 305 306 308 311 313 313 313 313 313 312 311 311 311 313 313 311 308 305 305 305 305 305 303 300 297 297 299 302 306 306 307 306 304 302 300 296 292 288 284 280 275 268 267 269 271 272 272 272 274 275 276 277 278 279 279 277 274 270 263 252 243 239 235 231 229 232 235 238 240 242 244 247 249 251 253 255 258 263 270 280 289 295 300 304
307 306 307 307 309 310 310 310 311 311 311 309 308 309 312 316 317 315 311 306 305 305 305 305 303 298 295 296 299 303 307 308 308 308 309 309 307 304 300 295 290 285 279 272 268 266 267 269 272 274 275 274 273 272 272 273 275 277 276 272 261 248 237 235 232 228 226 229 231 233 235 237 240 243 247 249 252 255 260 266 274 282 289 294 298 302
306 305 305 306 308 308 308 309 309 308 306 305 306 308 313 317 318 315 311 307 305 306 306 306 302 296 293 298 303 307 308 309 310 310 311 312 312 310 307 302 297 291 285 280 275 271 267 266 268 272 274 273 271 269 268 269 272 275 275 268 254 238 228 226 226 227 227 227 228 229 230 232 236 241 246 250 254 258 263 270 277 284 290 295 298 301
302 302 304 307 309 309 308 307 305 303 302 301 303 307 312 315 314 312 310 310 309 309 309 309 306 302 301 305 308 309 309 309 310 310 311 312 313 313 312 309 305 300 294 288 282 277 272 268 266 266 267 268 269 269 270 270 271 271 268 259 244 227 219 221 225 229 230 228 226 227 228 231 236 242 247 252 258 263 267 273 279 287 293 298 302 305
300 302 306 308 308 306 304 302 300 298 298 300 303 307 310 313 313 312 313 315 315 313 312 311 310 309 309 309 309 308 306 305 305 306 308 310 312 314 315 314 312 308 303 297 289 282 276 272 268 265 262 261 264 269 272 274 272 268 262 251 236 223 219 225 231 234 234 232 231 232 234 237 240 245 250 257 263 268 273 277 283 289 297 303 308 313
301 303 305 305 303 301 298 297 297 297 299 301 304 306 311 317 321 321 320 319 316 313 311 310 310 310 309 307 306 305 304 302 301 301 304 308 312 315 316 316 314 310 305 300 294 288 282 277 274 269 264 259 259 262 268 271 271 267 259 249 237 229 227 232 238 240 239 238 238 240 243 246 248 251 255 259 265 272 279 284 289 294 302 311 317 324
302 303 302 300 297 295 294 295 296 298 300 301 303 307 316 324 327 325 322 319 316 313 311 310 309 308 307 305 305 305 305 303 302 303 306 312 315 317 317 317 314 310 305 300 295 289 284 280 278 277 273 265 259 257 259 262 264 262 254 246 240 237 235 238 242 245 244 243 244 246 247 248 251 252 255 257 264 274 283 291 295 301 314 331 340 346
300 300 299 296 294 293 293 295 297 298 299 299 303 313 324 328 327 325 323 320 317 315 314 313 311 308 306 305 307 309 309 308 307 309 314 318 320 320 320 320 318 313 304 297 293 289 283 280 280 281 278 272 265 259 255 253 252 248 240 236 237 236 235 238 242 246 247 246 245 243 241 241 241 243 245 252 260 273 287 296 300 306 331 357 9 13